Regional Weather Roundup
Issued by NWS Sterling, VA

Home | Current Version | Previous Version | Graphics & Text | Print | Product List | Glossary On
Versions: 1 2 3 4 5 6 7 8 9 10 11 12 13 14 15 16 17 18 19 20 21 22 23 24 25 26 27 28 29 30 31 32 33 34 35 36 37 38 39 40 41 42 43 44 45 46 47 48 49 50
928
ASUS41 KLWX 221510
RWRLWX

REGIONAL WEATHER ROUNDUP
NATIONAL WEATHER SERVICE BALTIMORE MD/WASHINGTON DC
1100 AM EDT FRI JUL 22 2016

Note: "FAIR" indicates few or no clouds below 12,000 feet
with no significant weather and/or obstructions to visibility.
 TC=TEMPERATURE CELSIUS

 * =Non NWS site. Station does not report precipitation (e.g. rain,
    snow, etc.), thunder, or fog.

DCZ001-MDZ009-015-VAZ040>042-051-053>054-221600-
WASHINGTON METRO

CITY           SKY/WX    TMP DP  RH WIND       PRES   REMARKS
WASHINGTON NAT CLOUDY    85  72  65 S7        30.02F HX  91
DULLES         PTSUNNY   86  66  51 W8        30.03F
ANDREWS AFB    SUNNY     84  70  62 W7        30.02F
FT BELVOIR     FAIR      85  71  62 VRB2      30.02F HX  91
QUANTICO       FAIR      82  73  74 S7        30.03F
COLLEGE PARK*  FAIR      82  66  57 W5        30.01F
LEESBURG*      FAIR      88  72  58 W9        30.04S HX  94
MANASSAS*      SUNNY     84  72  65 CALM      30.03F
GAITHERSBURG*  MOSUNNY   82  68  61 NW6       30.07S

$$

MDZ006>007-011-014-221600-
BALTIMORE METRO

CITY           SKY/WX    TMP DP  RH WIND       PRES   REMARKS
BWI AIRPORT    PTSUNNY   86  66  51 W9        30.01S
MD SCIENCE CTR   N/A     87  66  49 MISG      30.00S
MARTIN STATE   PTSUNNY   84  73  70 S3        30.02S HX  91
ANNAPOLIS      MOSUNNY   85  71  63 NW6       30.00F HX  90
FORT MEADE*    MOSUNNY   81  72  74 SW5       30.04S

$$

MDZ012-015-019>023-221600-
MARYLAND EASTERN SHORE

CITY           SKY/WX    TMP DP  RH WIND       PRES   REMARKS
OCEAN CITY     PTSUNNY   86  73  65 SW10      30.03F HX  93
SALISBURY      MOSUNNY   86  73  65 SW13      30.02F HX  93
BAY BRIDGE AP* MOSUNNY   82  72  69 SW6       30.01F HAZE
CAMBRIDGE*     SUNNY     82  70  65 SW6       30.01F
EASTON*        SUNNY     86  77  74 W8        30.05F HX  97

$$

MDZ017>025-221600-
SOUTHERN MARYLAND

CITY           SKY/WX    TMP DP  RH WIND       PRES   REMARKS
PATUXENT RIVER CLOUDY    88  69  53 W9        30.01F HX  92
ST INIGOES     MOSUNNY   86  72  62 SW7       30.01F HX  92
LEONARDTOWN*   MOSUNNY   84  68  58 SW7       30.04S

$$

MDZ003>005-221600-
NORTH CENTRAL MARYLAND

CITY           SKY/WX    TMP DP  RH WIND       PRES   REMARKS
FREDERICK*     SUNNY     86  68  54 W8        30.05S
HAGERSTOWN APT CLOUDY    82  64  54 SW6       30.04S

$$

MDZ501>502-221600-
WESTERN MARYLAND

CITY           SKY/WX    TMP DP  RH WIND       PRES   REMARKS
OAKLAND*       PTSUNNY   73  61  64 W10G16    30.18S
CUMBERLAND*    PTSUNNY   77  66  69 S3        30.10S

$$

VAZ025>031-221600-
SHENANDOAH VALLEY

CITY           SKY/WX    TMP DP  RH WIND       PRES   REMARKS
WINCHESTER*    FAIR      82  66  57 W3        30.05R
FRONT ROYAL*   FAIR      82  68  61 S6        30.05S
LURAY*         FAIR      81  70  69 W3        30.06S
NEW MARKET*    FAIR     N/A N/A N/A CALM      30.06S
STAUNTON*      FAIR      78  68  69 CALM      30.11R
WAYNESBORO*    FAIR      82  64  54 W5        30.10S

$$

WVZ021-048>050-054>055-221600-
EASTERN WEST VIRGINIA PANHANDLE

CITY           SKY/WX    TMP DP  RH WIND       PRES   REMARKS
MARTINSBURG    FAIR      85  64  49 W5        30.03F
PETERSBURG*    FAIR      82  67  60 CALM      30.07S

$$

VAZ036>039-050-221600-
CENTRAL FOOTHILLS

CITY           SKY/WX    TMP DP  RH WIND       PRES   REMARKS
CHARLOTTESVILL FAIR      87  66  49 N3        30.05S
CULPEPER*      FAIR      84  73  70 CALM      30.04S HX  90
ORANGE*          N/A     88  72  58 CALM      30.06S HX  94
GORDONSVILLE*  FAIR      85  70  59 CALM      30.04R HX  90
WARRENTON*     FAIR      87  67  52 CALM      30.03F HX  90

$$

VAZ055>057-221600-
NORTH AND CENTRAL PIEDMONT

CITY           SKY/WX    TMP DP  RH WIND       PRES   REMARKS
FREDERICKSBRG* FAIR      86  73  64 SW3       30.02S HX  92
STAFFORD*      FAIR      85  70  62 NW3       30.07S

$$

NCZ024-NYZ072-PAZ021-071-VAZ022-071-221600-
OTHER REGIONAL OBSERVATIONS

CITY           SKY/WX    TMP DP  RH WIND       PRES   REMARKS
NEW YORK CITY  SUNNY     85  67  54 VRB7      29.96F
PHILADELPHIA   PTSUNNY   85  71  63 W13       29.98F HX  90
PITTSBURGH     CLOUDY    77  66  68 NE9       30.09R
ROANOKE        FAIR      83  66  56 W6        30.12S
RICHMOND       CLOUDY    84  73  69 S8        30.03F HX  90
RALEIGH        PTSUNNY   86  73  65 S10       30.09S HX  93

$$

ANZ530>537-221600-
MARINE OBSERVATIONS

STATION/POSITION TIME  TEMP    WIND        PRES
                       AIR SEA DIR/SP/G
                 (UTC) (F)     (DEG/KT/KT) (MB)
THOMAS PT LIGHT  1500   81 81  260/  3/  4 1017.6F
BALT KEY BRIDGE  1448   83     240/  6/  7 1015.9F
COVE POINT       1442   84     280/ 10/ 13 1016.7F
LEWISETTA        1442   84 85  260/  6/  8 1016.3F
SOLOMONS ISLAND  1442   87 83  250/  5/  7   N/A
PINEY POINT      1448          250/  1/  3   N/A

$$





USA.gov is the U.S. government's official web portal to all federal, state and local government web resources and services.